Temperature
20 18 18 18 19 20 20 20 19 19 20 20 19 19 19 19 19 19 19 19 19 19 20 20 20 20 20 20 20 20 19 19 19 18 18 18 18 18 18 17 17 17 17 17
18 19 19 19 19 19 19 19 19 19 20 20 19 19 18 18 18 19 19 18 19 19 20 20 20 20 20 20 20 19 19 19 19 19 18 18 18 17 17 17 17 17 17 17
20 20 20 20 20 20 19 19 19 20 19 19 19 19 18 18 19 19 19 19 19 19 19 20 20 20 20 20 19 19 19 19 19 18 18 18 17 17 17 17 17 17 17 16
19 19 20 20 20 20 19 20 20 20 19 18 19 18 18 18 18 18 18 18 18 19 19 19 19 19 19 20 19 19 19 19 18 18 18 18 18 17 17 17 17 17 16 16
19 20 20 20 20 20 19 20 20 19 18 18 18 18 17 17 18 18 18 18 18 19 19 19 19 19 19 19 19 19 19 18 18 18 18 18 17 17 17 17 17 16 16 16
19 20 20 20 20 20 20 19 18 16 16 17 18 17 17 16 17 18 18 18 18 19 19 19 19 19 19 19 19 19 18 18 18 18 17 17 17 17 17 17 16 16 16 16
19 19 20 20 20 20 19 17 17 17 16 16 17 17 16 17 17 17 17 18 18 18 18 19 19 19 19 19 18 18 18 18 18 17 17 17 17 17 17 17 16 16 16 16
18 18 19 20 20 19 18 17 17 17 16 16 17 17 16 17 17 17 17 17 18 18 18 18 18 18 18 18 18 18 17 17 17 17 17 17 16 16 16 16 16 16 16 16
17 17 19 20 20 19 18 17 17 15 16 16 16 16 16 17 16 16 16 16 17 17 17 18 18 18 17 17 18 18 17 17 17 17 17 16 16 16 16 16 16 16 16 15
17 18 18 19 19 19 18 16 14 15 15 16 17 17 16 16 16 15 15 15 15 16 17 17 17 17 17 17 17 17 17 17 17 17 16 16 16 16 16 15 15 15 15 15
17 16 17 17 18 18 17 16 14 13 14 15 16 16 16 15 15 14 14 15 15 16 16 16 16 16 16 16 17 17 17 17 16 16 16 16 16 15 15 15 15 15 15 15
15 14 15 16 17 17 17 16 14 15 15 13 14 15 16 14 14 14 14 15 15 15 15 15 16 16 16 16 16 16 16 16 16 16 16 16 15 15 15 15 15 15 15 15
15 14 15 16 16 16 17 16 15 13 12 12 14 15 15 14 14 14 14 14 14 15 15 15 15 15 15 16 16 16 16 16 16 16 15 15 15 15 15 15 15 15 15 14
15 13 14 15 15 15 16 16 15 13 13 13 14 15 14 14 13 13 14 14 14 14 14 15 15 15 15 15 15 15 15 15 15 15 15 15 15 15 15 15 15 15 14 14
13 13 14 14 15 15 15 15 15 14 14 14 14 14 14 13 13 13 13 14 13 13 14 14 14 14 15 15 15 15 15 15 15 15 15 15 15 15 15 15 15 14 14 14
11 13 14 14 15 15 14 14 15 14 14 14 14 14 13 13 13 13 13 13 13 13 13 14 14 14 14 14 15 15 15 14 14 14 14 15 15 15 15 15 14 14 14 14
11 12 12 13 14 14 14 14 14 14 13 13 13 13 13 12 12 12 13 13 13 13 13 13 14 14 14 14 14 14 14 14 14 14 14 14 14 14 14 14 14 14 14 14
11 10 10 11 13 14 13 14 14 13 13 13 13 12 12 12 13 13 13 13 13 13 13 13 13 14 14 14 14 14 14 14 14 13 13 13 14 14 14 14 14 14 14 13
10 10 10 10 12 12 13 13 13 13 13 13 12 12 12 12 12 12 13 13 13 13 13 13 13 13 13 13 13 13 13 13 13 13 13 13 13 13 13 13 13 13 13 13
10 10 10 10 12 12 13 13 13 12 12 12 12 11 12 12 11 11 13 13 13 13 13 13 13 13 13 13 13 13 13 13 13 13 12 12 13 13 13 13 13 13 13 13
10 10 10 10 11 11 12 12 13 12 12 12 12 12 12 11 12 12 12 12 12 12 12 12 12 13 13 12 12 12 12 12 12 12 12 12 12 12 12 12 12 12 12 12
10 10 10 9 11 11 11 12 11 11 12 12 12 12 12 12 12 12 12 12 12 12 12 12 12 12 12 12 12 12 12 12 12 12 12 12 12 12 12 12 12 12 12 12
9 9 9 9 10 10 11 11 12 12 11 12 12 12 12 12 11 11 11 12 12 12 12 11 11 11 11 11 11 11 11 11 11 11 11 11 11 11 12 12 11 11 11 12
9 9 9 9 10 11 11 11 12 12 11 11 12 12 12 11 11 11 11 11 11 11 11 11 11 11 11 11 11 11 11 11 11 11 11 11 11 11 11 11 11 11 11 11
9 9 9 9 10 11 12 12 12 12 12 12 12 11 11 11 11 11 11 11 11 11 11 11 11 11 10 10 10 10 10 10 10 10 11 10 10 10 11 11 11 11 11 11
9 9 9 9 10 10 11 11 11 11 11 11 11 11 11 11 11 11 11 11 11 11 10 10 10 10 10 10 10 10 10 10 10 10 10 10 10 10 10 10 10 10 10 10
Wind_Speed
3 4 4 7 8 5 4 2 4 6 3 1 3 5 5 2 2 3 4 4 5 6 4 3 4 5 7 7 8 8 8 7 7 5 4 3 3 2 1 1 2 3 3 4
4 3 7 5 4 4 3 2 4 5 2 1 3 5 4 3 5 5 5 5 6 4 2 3 4 5 6 8 8 8 8 8 7 5 4 3 3 2 2 1 2 3 4 4
6 5 3 4 3 3 3 5 5 4 4 3 1 5 3 3 2 2 3 4 4 5 5 5 5 6 6 7 9 9 8 7 7 6 5 4 3 2 1 1 1 1 3 4
4 4 2 2 3 5 5 6 5 3 0 3 0 4 6 3 3 3 3 3 4 4 4 4 6 6 6 7 7 7 7 7 7 7 7 7 5 4 3 2 1 1 2 3
4 3 4 4 5 6 6 2 2 2 3 1 1 2 7 2 4 6 5 5 5 5 5 5 7 7 7 6 6 6 7 7 6 7 8 7 5 3 2 2 2 1 1 2
4 2 3 5 3 4 3 4 5 5 4 2 5 5 6 4 6 5 5 5 5 5 4 4 4 4 4 4 5 5 7 6 6 7 7 7 6 5 5 3 3 2 1 0
5 4 3 2 1 1 4 5 4 4 2 6 3 4 7 6 4 4 5 5 4 3 3 3 3 3 4 4 5 5 7 6 6 7 7 7 7 7 6 5 5 3 2 1
1 6 4 2 4 5 4 8 7 5 5 5 2 6 6 4 3 3 3 3 2 2 3 4 4 5 5 5 5 5 6 6 6 7 6 6 6 5 4 5 4 4 3 3
4 6 4 2 2 6 5 4 6 6 2 2 5 5 6 3 3 3 1 1 1 2 2 3 3 3 4 4 5 6 6 6 7 7 6 5 5 5 4 4 3 3 3 3
6 4 5 4 3 3 4 7 6 5 4 4 5 4 4 5 5 3 2 2 2 1 1 1 2 2 3 4 4 4 5 6 6 7 6 6 5 5 4 4 4 4 3 3
3 3 4 3 1 2 2 4 4 4 4 5 4 6 4 6 5 5 4 3 2 2 1 1 1 1 2 2 3 4 3 4 5 7 6 6 5 4 4 4 4 4 4 4
3 4 2 5 4 1 3 5 6 4 4 4 4 7 3 4 4 3 2 1 1 1 2 2 1 1 2 2 2 3 3 3 4 6 6 6 5 4 4 4 5 5 4 4
3 4 2 6 5 3 1 1 3 4 3 4 4 7 2 1 1 1 1 1 1 1 1 1 1 1 1 1 2 2 2 3 3 5 6 6 6 6 5 4 4 4 4 4
4 3 5 7 6 2 1 1 2 4 3 4 7 7 5 4 3 2 1 1 2 1 1 1 1 1 1 1 1 2 2 2 3 3 5 6 7 7 6 4 4 4 4 4
4 2 3 4 4 2 2 3 2 3 5 6 7 6 8 6 5 4 3 2 2 2 1 1 1 1 1 1 1 1 1 2 2 3 4 5 5 5 4 4 4 4 4 5
3 3 1 2 2 1 2 5 4 4 3 4 5 7 6 3 1 2 3 3 3 3 3 2 1 1 1 1 2 1 2 1 2 3 4 3 3 4 4 4 4 4 4 3
2 4 2 3 3 1 4 4 3 1 2 3 4 6 4 2 2 3 4 4 4 4 3 3 3 2 2 2 2 2 2 1 1 2 2 2 3 4 5 4 4 4 4 4
5 4 3 1 1 4 5 1 0 1 3 2 3 5 3 3 2 1 2 3 3 2 2 2 2 1 1 1 1 1 1 1 1 1 2 2 3 4 4 4 5 5 4 4
4 5 3 3 2 4 4 2 1 1 4 3 2 3 2 1 3 3 2 2 3 3 2 2 2 2 1 1 1 2 0 0 1 1 2 2 3 4 4 4 5 4 4 4
4 4 4 3 3 4 4 4 3 1 4 4 2 3 2 0 1 4 3 2 1 1 1 1 1 1 1 1 1 2 1 0 1 2 3 3 3 3 4 5 4 3 4 4
3 3 2 3 3 4 4 5 2 1 5 4 2 3 2 3 4 3 1 2 1 0 1 1 1 1 1 1 1 2 1 2 3 2 1 2 2 2 3 3 2 2 3 3
2 1 1 2 2 5 4 2 1 4 4 3 3 2 1 2 2 1 1 1 1 1 0 2 1 1 1 1 2 1 2 3 1 0 0 1 1 1 1 2 2 2 3 3
2 4 4 4 5 4 2 2 3 2 3 3 2 2 1 1 1 1 0 1 1 1 2 2 2 1 1 1 2 2 2 1 0 0 0 1 1 1 1 2 3 2 2 2
2 1 2 1 3 3 3 3 3 2 2 3 3 2 1 0 1 1 1 1 1 1 2 2 2 1 2 2 2 2 2 1 1 1 0 1 1 1 1 1 3 3 3 3
3 1 1 2 3 3 4 3 3 2 2 2 2 2 1 1 1 1 2 2 1 1 1 2 2 2 3 2 2 2 1 2 2 1 1 1 1 2 2 2 3 4 5 5
2 3 3 4 4 3 4 4 2 2 2 2 2 2 2 1 2 2 2 2 1 1 0 1 1 2 2 2 2 2 2 2 2 1 1 1 1 1 2 2 2 3 5 6
Wind_Direction
85 92 195 211 194 188 179 193 265 266 267 297 268 274 275 240 191 208 207 198 197 213 222 187 165 162 161 159 159 161 160 161 155 156 156 153 161 152 126 128 143 149 145 141
54 250 230 194 161 151 168 204 262 284 302 211 282 291 273 219 205 205 208 209 205 203 188 171 161 158 164 168 169 167 168 165 166 167 164 157 148 143 148 117 109 137 143 146
188 233 177 144 156 180 219 200 222 246 344 16 343 318 301 277 232 218 212 203 205 194 192 180 168 172 168 171 178 177 172 166 164 149 134 118 95 82 93 98 129 141 142 140
222 241 166 164 216 178 253 228 204 213 42 284 286 282 287 268 270 243 233 205 210 209 196 181 178 182 182 183 176 170 168 163 158 149 153 154 160 169 186 184 176 120 127 136
240 203 179 214 226 176 219 219 181 190 178 253 281 204 284 292 261 246 231 218 217 214 200 193 191 191 190 177 169 167 162 162 158 158 159 159 160 161 143 130 128 124 108 123
252 248 202 216 227 173 164 70 55 53 82 251 234 188 268 241 237 244 230 223 224 221 212 206 196 175 166 162 162 160 161 163 161 160 160 162 161 154 143 149 161 166 157 160
321 308 273 186 96 62 103 93 27 347 356 247 243 193 244 255 251 229 232 238 235 221 204 187 174 176 169 166 165 167 167 168 165 164 168 171 167 165 166 172 178 173 173 192
246 290 265 213 188 198 186 148 162 209 229 265 269 225 248 271 281 256 235 242 246 221 192 184 186 184 178 173 167 162 174 174 170 173 178 175 167 169 177 181 181 185 193 198
189 257 295 283 229 157 155 182 172 155 194 242 262 272 299 320 343 358 6 3 250 236 200 178 161 158 170 169 173 173 173 174 177 180 175 172 170 170 179 183 184 189 192 192
168 242 291 308 49 40 141 143 101 131 166 236 268 261 254 272 278 286 267 241 243 219 162 137 139 143 160 171 163 156 167 181 182 181 182 184 183 186 182 180 192 194 191 181
148 186 302 356 141 225 85 99 111 131 163 177 240 260 230 228 234 230 232 227 207 174 135 108 99 128 149 161 159 158 166 173 176 181 180 178 183 182 179 190 203 198 190 183
131 131 252 270 268 246 171 167 148 162 225 190 198 258 276 231 228 214 215 221 182 146 134 130 139 160 155 161 170 166 174 177 184 181 176 180 179 178 187 201 205 196 191 191
128 113 44 339 341 6 70 137 143 136 138 176 196 257 310 323 309 199 173 162 118 112 106 117 131 174 193 188 196 186 190 194 185 178 178 180 182 187 196 200 197 191 188 191
118 122 170 204 225 230 268 303 149 136 171 215 224 251 292 295 268 257 224 172 145 153 151 141 167 264 258 234 215 204 195 196 193 182 185 188 195 197 197 192 189 190 187 190
100 151 203 232 248 212 225 276 257 215 209 213 245 251 265 256 239 221 201 182 167 180 197 200 188 272 310 321 309 277 242 207 193 189 194 204 201 195 187 185 189 194 195 199
82 149 167 274 264 211 263 279 269 260 247 243 268 277 278 271 196 190 194 193 209 222 219 222 214 246 265 282 294 289 258 242 194 203 211 207 195 189 189 190 187 190 202 202
121 137 141 242 280 3 279 268 250 262 261 215 244 269 294 289 234 216 212 208 210 217 218 213 208 216 236 236 233 248 261 235 183 209 224 202 192 194 202 199 189 196 203 199
149 132 139 184 43 242 246 256 163 252 285 271 271 284 268 252 276 281 227 212 210 203 202 216 217 222 233 231 216 227 253 209 178 201 223 216 202 201 201 195 203 207 203 202
155 143 131 137 194 268 289 302 313 260 286 292 272 297 316 24 15 337 300 230 218 202 195 206 208 206 194 204 206 161 144 208 184 232 247 235 219 206 200 203 211 209 199 204
65 99 122 136 177 236 262 302 312 122 283 299 262 259 282 4 300 286 310 323 291 189 169 178 175 126 136 246 177 136 148 196 252 252 257 244 228 219 210 208 209 203 194 201
33 51 118 168 212 261 289 311 6 152 262 295 272 251 238 220 222 250 303 344 354 64 136 126 132 136 210 216 145 136 154 236 257 256 254 242 224 220 213 201 194 184 186 186
177 147 177 149 189 261 314 6 196 246 282 301 296 292 261 253 275 289 294 336 354 22 165 152 152 201 238 176 135 146 238 253 264 239 267 271 250 230 201 168 167 161 169 184
190 195 184 184 213 254 285 258 283 281 291 301 308 316 265 252 287 334 337 330 267 236 224 191 176 205 254 222 169 187 260 261 135 74 330 302 304 283 220 182 178 180 180 193
303 141 130 279 273 284 302 306 306 301 294 307 305 294 296 260 278 313 312 300 280 260 218 196 169 194 248 257 229 218 241 196 145 160 277 276 266 283 275 202 188 198 207 207
252 171 166 250 282 325 325 316 313 328 345 352 356 355 317 283 288 287 297 291 280 287 247 186 183 208 243 253 264 259 236 186 172 184 259 291 267 255 254 236 222 217 221 213
224 188 186 230 237 209 266 282 296 312 310 318 347 354 339 270 256 271 277 273 272 271 272 174 190 211 250 256 265 275 258 199 176 200 254 254 248 255 249 248 272 249 236 237
Height
1491 1497 1502 1500 1499 1501 1504 1508 1511 1507 1499 1501 1502 1501 1497 1494 1495 1496 1496 1496 1497 1498 1499 1501 1503 1505 1507 1509 1512 1514 1516 1519 1521 1523 1524 1526 1528 1529 1531 1532 1533 1534 1536 1536
1496 1499 1493 1493 1496 1499 1503 1508 1510 1504 1498 1500 1502 1501 1495 1493 1493 1494 1495 1495 1495 1496 1498 1498 1500 1502 1504 1506 1509 1512 1515 1517 1519 1521 1523 1526 1527 1528 1530 1531 1533 1534 1535 1535
1495 1493 1489 1493 1496 1500 1503 1506 1505 1504 1501 1500 1502 1503 1497 1493 1493 1493 1494 1494 1494 1495 1495 1496 1498 1500 1502 1504 1507 1510 1512 1515 1517 1520 1523 1525 1527 1528 1529 1530 1531 1533 1534 1535
1492 1489 1489 1492 1495 1497 1505 1496 1498 1501 1508 1513 1507 1518 1501 1496 1494 1492 1492 1492 1492 1493 1494 1494 1496 1498 1500 1502 1505 1508 1511 1513 1516 1519 1521 1522 1524 1525 1526 1528 1530 1531 1532 1533
1491 1487 1489 1492 1491 1492 1495 1491 1495 1499 1506 1513 1510 1516 1508 1497 1496 1491 1490 1490 1490 1491 1491 1492 1494 1496 1498 1501 1503 1506 1509 1512 1514 1517 1519 1521 1522 1524 1526 1528 1529 1530 1531 1532
1487 1484 1485 1486 1484 1486 1488 1494 1499 1507 1514 1522 1511 1515 1511 1500 1493 1489 1487 1487 1487 1488 1490 1491 1493 1495 1497 1499 1502 1504 1506 1509 1512 1514 1517 1519 1521 1522 1524 1526 1527 1528 1530 1531
1491 1486 1483 1482 1486 1487 1490 1504 1521 1523 1529 1524 1509 1511 1508 1491 1487 1486 1485 1485 1485 1487 1487 1489 1490 1492 1494 1497 1499 1502 1504 1507 1509 1512 1515 1517 1519 1521 1522 1524 1525 1526 1527 1528
1500 1499 1485 1482 1485 1490 1492 1499 1519 1528 1529 1521 1509 1510 1498 1486 1484 1483 1483 1483 1483 1484 1485 1487 1488 1490 1492 1495 1497 1500 1502 1505 1507 1510 1513 1515 1517 1519 1520 1522 1523 1525 1526 1527
1500 1498 1482 1480 1479 1483 1491 1498 1498 1513 1517 1521 1515 1504 1493 1484 1483 1482 1481 1482 1482 1483 1484 1485 1487 1488 1491 1493 1496 1498 1500 1503 1505 1508 1510 1512 1514 1516 1518 1520 1522 1523 1524 1525
1490 1495 1486 1481 1480 1482 1485 1493 1506 1514 1523 1524 1513 1506 1501 1489 1485 1482 1481 1481 1481 1482 1483 1484 1485 1487 1489 1492 1494 1496 1499 1500 1503 1505 1508 1510 1513 1515 1516 1518 1519 1521 1522 1523
1487 1495 1492 1487 1487 1489 1490 1495 1502 1512 1513 1520 1520 1509 1486 1484 1482 1481 1480 1480 1480 1481 1483 1484 1485 1487 1489 1490 1492 1494 1496 1496 1500 1503 1505 1508 1510 1512 1514 1516 1517 1518 1520 1521
1488 1497 1501 1493 1485 1483 1485 1490 1499 1507 1510 1513 1515 1505 1481 1480 1479 1479 1479 1480 1480 1481 1483 1484 1485 1486 1488 1489 1490 1492 1493 1495 1497 1500 1503 1505 1507 1509 1511 1512 1514 1515 1517 1518
1487 1497 1505 1501 1496 1489 1488 1489 1492 1499 1507 1513 1512 1501 1480 1479 1477 1478 1479 1480 1481 1482 1483 1484 1485 1486 1487 1488 1489 1490 1492 1494 1496 1497 1500 1502 1504 1506 1508 1509 1511 1512 1514 1515
1484 1496 1501 1504 1499 1492 1491 1490 1491 1497 1506 1506 1500 1491 1483 1480 1478 1478 1479 1479 1480 1481 1482 1483 1484 1485 1486 1487 1488 1489 1490 1492 1494 1495 1497 1499 1501 1503 1505 1506 1508 1510 1511 1513
1484 1494 1493 1492 1489 1488 1489 1490 1489 1491 1494 1497 1490 1487 1481 1478 1477 1477 1477 1478 1479 1480 1481 1481 1482 1484 1484 1485 1487 1488 1489 1490 1492 1493 1494 1496 1498 1500 1502 1504 1505 1507 1509 1510
1487 1493 1493 1492 1488 1488 1491 1488 1487 1487 1487 1488 1486 1484 1477 1476 1475 1476 1476 1477 1478 1479 1480 1481 1481 1482 1483 1484 1485 1486 1487 1488 1489 1490 1491 1493 1495 1497 1499 1501 1502 1504 1506 1507
1490 1493 1497 1498 1491 1489 1495 1489 1487 1487 1485 1485 1486 1482 1477 1476 1475 1475 1475 1475 1475 1477 1478 1479 1480 1481 1481 1482 1484 1484 1485 1486 1487 1488 1489 1490 1492 1494 1496 1497 1499 1501 1502 1504
1489 1494 1499 1500 1496 1500 1493 1484 1484 1485 1483 1482 1480 1478 1476 1475 1475 1474 1474 1474 1474 1475 1476 1477 1478 1478 1479 1480 1481 1482 1483 1484 1484 1485 1486 1487 1489 1491 1492 1494 1495 1497 1499 1500
1484 1490 1498 1502 1501 1497 1489 1484 1484 1485 1484 1479 1479 1477 1475 1474 1474 1474 1474 1473 1473 1473 1474 1475 1476 1477 1478 1478 1479 1480 1480 1481 1482 1483 1483 1484 1486 1488 1489 1491 1492 1494 1495 1497
1486 1488 1495 1500 1499 1500 1491 1483 1481 1484 1485 1478 1477 1476 1475 1474 1477 1475 1473 1472 1472 1472 1473 1474 1475 1475 1476 1477 1477 1477 1477 1479 1480 1480 1481 1482 1484 1485 1486 1487 1489 1491 1492 1494
1491 1494 1496 1498 1499 1495 1487 1482 1482 1490 1486 1478 1476 1475 1474 1473 1474 1473 1471 1471 1471 1471 1472 1473 1473 1474 1475 1476 1475 1475 1475 1476 1477 1478 1479 1480 1481 1482 1483 1484 1486 1487 1489 1491
1493 1495 1497 1499 1500 1498 1485 1483 1485 1484 1479 1477 1475 1474 1474 1473 1471 1471 1470 1470 1470 1470 1470 1471 1471 1472 1473 1474 1474 1473 1474 1475 1475 1476 1477 1478 1479 1480 1480 1481 1483 1484 1486 1487
1492 1492 1493 1494 1494 1487 1484 1483 1482 1481 1479 1477 1475 1474 1473 1472 1471 1471 1470 1469 1469 1469 1469 1469 1470 1470 1471 1472 1472 1472 1472 1473 1473 1474 1475 1476 1476 1477 1478 1479 1480 1482 1483 1484
1489 1488 1489 1490 1487 1484 1483 1482 1481 1479 1478 1477 1475 1474 1473 1472 1471 1471 1470 1468 1468 1467 1467 1467 1467 1468 1469 1470 1471 1471 1471 1471 1471 1472 1472 1473 1474 1475 1475 1476 1477 1478 1479 1480
1487 1487 1488 1488 1485 1483 1482 1481 1480 1478 1477 1476 1475 1474 1473 1472 1471 1470 1469 1468 1467 1466 1465 1466 1466 1467 1467 1468 1469 1470 1470 1470 1470 1470 1470 1471 1471 1472 1473 1474 1475 1475 1476 1476
1485 1486 1487 1486 1483 1483 1482 1480 1479 1478 1476 1475 1474 1473 1473 1472 1470 1469 1468 1467 1466 1465 1464 1464 1465 1466 1466 1467 1467 1468 1468 1468 1468 1468 1468 1469 1469 1470 1470 1471 1471 1472 1473 1474